JST495 YBCG-YWLM

Flight info

Callsign JST495
Flight time N/A
Altitude 36000
Route GOMOL Q16 APAGI H91 SANAD/N0350F190 V779 LAXUM DCT WLM
Aircraft A320/M-SDE3FGHIRWY/LB1

Departure

Time N/A
Airport Gold Coast Airport (YBCG)

Arrival

Time 2026-04-23 05:37
Airport Newcastle Airport (YWLM)
Time Latitude Longitude Altitude Speed Heading
2026-04-23 05:17 -31.56559 151.46429 24752 ft 317 kts 167°
2026-04-23 05:17 -31.58722 151.47054 24349 ft 316 kts 166°
2026-04-23 05:17 -31.60829 151.47666 23954 ft 316 kts 166°
2026-04-23 05:18 -31.62962 151.48287 23502 ft 315 kts 166°
2026-04-23 05:18 -31.65077 151.48903 23096 ft 313 kts 166°
2026-04-23 05:18 -31.67182 151.49517 22691 ft 310 kts 166°
2026-04-23 05:18 -31.69269 151.50125 22282 ft 308 kts 166°
2026-04-23 05:19 -31.71343 151.50732 21875 ft 306 kts 166°
2026-04-23 05:19 -31.73407 151.51336 21470 ft 305 kts 166°
2026-04-23 05:19 -31.75465 151.51934 21067 ft 305 kts 166°
2026-04-23 05:19 -31.77524 151.52531 20658 ft 304 kts 166°
2026-04-23 05:20 -31.79575 151.53128 20243 ft 304 kts 166°
2026-04-23 05:20 -31.81622 151.53731 19831 ft 304 kts 165°
2026-04-23 05:20 -31.83671 151.54341 19417 ft 303 kts 165°
2026-04-23 05:20 -31.85718 151.54953 18994 ft 303 kts 165°
2026-04-23 05:21 -31.87763 151.55567 18583 ft 303 kts 165°
2026-04-23 05:21 -31.89808 151.56181 18129 ft 303 kts 165°
2026-04-23 05:21 -31.91844 151.56793 17708 ft 302 kts 165°
2026-04-23 05:21 -31.93873 151.57402 17296 ft 300 kts 165°
2026-04-23 05:22 -31.95893 151.58009 16890 ft 299 kts 165°
2026-04-23 05:22 -31.97903 151.58611 16483 ft 298 kts 165°
2026-04-23 05:22 -31.99907 151.59211 16076 ft 297 kts 165°
2026-04-23 05:22 -32.01906 151.59807 15672 ft 295 kts 165°
2026-04-23 05:23 -32.03897 151.60404 15267 ft 296 kts 165°
2026-04-23 05:23 -32.05878 151.61000 14856 ft 291 kts 165°
2026-04-23 05:23 -32.07839 151.61588 14464 ft 292 kts 165°
2026-04-23 05:23 -32.09808 151.62179 14053 ft 291 kts 164°
2026-04-23 05:24 -32.11778 151.62769 13630 ft 292 kts 164°
2026-04-23 05:24 -32.13742 151.63360 13244 ft 291 kts 164°
2026-04-23 05:24 -32.15698 151.63948 12851 ft 290 kts 164°
2026-04-23 05:24 -32.17635 151.64530 12478 ft 288 kts 164°
2026-04-23 05:25 -32.19547 151.65107 12137 ft 286 kts 164°
2026-04-23 05:25 -32.21473 151.65689 11772 ft 285 kts 164°
2026-04-23 05:25 -32.23394 151.66270 11452 ft 283 kts 164°
2026-04-23 05:25 -32.25286 151.66838 11098 ft 281 kts 164°
2026-04-23 05:26 -32.27182 151.67406 10724 ft 281 kts 164°
2026-04-23 05:26 -32.29070 151.67973 10277 ft 277 kts 163°
2026-04-23 05:26 -32.30929 151.68535 9562 ft 275 kts 163°
2026-04-23 05:26 -32.32777 151.69054 9009 ft 269 kts 170°
2026-04-23 05:27 -32.34610 151.69180 8630 ft 259 kts 176°
2026-04-23 05:27 -32.36372 151.69224 8280 ft 248 kts 176°
2026-04-23 05:27 -32.38093 151.69271 7937 ft 247 kts 178°
2026-04-23 05:27 -32.39806 151.69317 7602 ft 245 kts 176°
2026-04-23 05:28 -32.41501 151.69364 7273 ft 243 kts 178°
2026-04-23 05:28 -32.43210 151.69415 6934 ft 248 kts 177°
2026-04-23 05:28 -32.44917 151.69464 6583 ft 250 kts 177°
2026-04-23 05:28 -32.46663 151.69513 6225 ft 252 kts 178°
2026-04-23 05:29 -32.48422 151.69561 5871 ft 254 kts 177°
2026-04-23 05:29 -32.50190 151.69610 5517 ft 255 kts 177°
2026-04-23 05:29 -32.51967 151.69658 5162 ft 256 kts 177°
2026-04-23 05:29 -32.53723 151.69703 4796 ft 246 kts 177°
2026-04-23 05:30 -32.55400 151.69745 4462 ft 235 kts 176°
2026-04-23 05:30 -32.57002 151.69784 4152 ft 225 kts 176°
2026-04-23 05:30 -32.58529 151.69878 3837 ft 214 kts 169°
2026-04-23 05:30 -32.59927 151.70311 3546 ft 203 kts 158°
2026-04-23 05:31 -32.61213 151.70891 3360 ft 189 kts 158°
2026-04-23 05:31 -32.62364 151.71401 3328 ft 166 kts 158°
2026-04-23 05:31 -32.63390 151.71854 3242 ft 150 kts 158°
2026-04-23 05:31 -32.64334 151.72272 3180 ft 142 kts 158°
2026-04-23 05:32 -32.65239 151.72673 3115 ft 135 kts 158°
2026-04-23 05:32 -32.66109 151.73058 3005 ft 134 kts 158°
2026-04-23 05:32 -32.66984 151.73442 2816 ft 134 kts 159°
2026-04-23 05:32 -32.67848 151.73820 2630 ft 132 kts 158°
2026-04-23 05:33 -32.68701 151.74193 2463 ft 131 kts 158°
2026-04-23 05:33 -32.69549 151.74564 2291 ft 129 kts 158°
2026-04-23 05:33 -32.70387 151.74930 2114 ft 128 kts 158°
2026-04-23 05:33 -32.71235 151.75303 1938 ft 130 kts 158°
2026-04-23 05:34 -32.72068 151.75667 1777 ft 128 kts 158°
2026-04-23 05:34 -32.72899 151.76030 1618 ft 128 kts 158°
2026-04-23 05:34 -32.73733 151.76396 1441 ft 126 kts 158°
2026-04-23 05:34 -32.74525 151.76836 1271 ft 126 kts 149°
2026-04-23 05:35 -32.75231 151.77458 1104 ft 125 kts 139°
2026-04-23 05:35 -32.75825 151.78219 959 ft 125 kts 131°
2026-04-23 05:35 -32.76381 151.78998 936 ft 124 kts 132°
2026-04-23 05:35 -32.76941 151.79785 837 ft 126 kts 130°
2026-04-23 05:36 -32.77495 151.80589 627 ft 124 kts 131°
2026-04-23 05:36 -32.78064 151.81378 347 ft 127 kts 133°
2026-04-23 05:36 -32.78641 151.82168 122 ft 126 kts 130°
2026-04-23 05:36 -32.79189 151.82926 33 ft 107 kts 131°
2026-04-23 05:37 -32.79481 151.83329 29 ft 24 kts 130°
2026-04-23 05:37 -32.79615 151.83515 28 ft 38 kts 130°
2026-04-23 05:37 -32.79788 151.83756 32 ft 35 kts 130°
2026-04-23 05:37 -32.79938 151.83851 32 ft 23 kts 181°
2026-04-23 05:38 -32.80108 151.83821 30 ft 26 kts 184°
2026-04-23 05:38 -32.80256 151.83947 30 ft 29 kts 132°
2026-04-23 05:38 -32.80304 151.84013 29 ft 0 kts 129°
2026-04-23 05:39 -32.80319 151.84029 29 ft 6 kts 148°
2026-04-23 05:39 -32.80340 151.84005 29 ft 2 kts 250°
2026-04-23 05:39 -32.80343 151.83994 29 ft 0 kts 251°
2026-04-23 05:39 -32.80344 151.83992 30 ft 1 kts 251°
2026-04-23 05:40 -32.80345 151.83990 30 ft 0 kts 251°